Date String (YYYY-MM-DD hh:mm:ss) UTC,Instrument flags,absolute air pressure of the measurement (hPa),sample flow rate (lpm),inlet stack bypass flow (lpm),air temperature of the measurement (°C),ambient temperature measured by the external sensor (°C),aerosol sample conditioner tube jacket temperature (°C),OPC LED temperature (°C),internal box temperature (°C),relative humidity of the measurement (%),span deviation,mass concentration of particles derived from Lorenz-Mie calculation of OPC scattering (μg/m³),mass concentration of particles derived from Lorenz-Mie calculation of OPC scattering (μg/m³),mass concentration of particles derived from Lorenz-Mie calculation of OPC scattering (μg/m³)
DateTimeUTC,F1_M11,P_M11,Q1_M11,Q2_M11,T1_M11,T2_M11,T3_M11,T4_M11,T5_M11,U1_M11,ZSPAN_M11,X2_M11,X0_M11,X1_M11
2023-09-10 22:00:00,SystemResetWarning,0837.0,5.00,000.00,028.5,024.0,000.0,036.8,029.7,33.7,-000.1,0015.68,0027.10,0014.10
2023-09-10 22:01:00,SystemResetWarning,0837.0,5.01,000.00,028.4,024.1,000.0,036.7,029.5,33.9,-000.0,0015.72,0027.01,0014.14
2023-09-10 22:02:00,SystemResetWarning,0837.0,5.01,000.00,028.3,024.5,000.0,036.7,029.4,34.1,-000.2,0015.72,0026.78,0014.12
2023-09-10 22:03:00,SystemResetWarning,0837.0,4.99,000.00,028.2,024.9,000.0,036.7,029.5,34.2,-000.4,0015.74,0026.36,0014.14
2023-09-10 22:04:00,SystemResetWarning,0837.0,5.00,000.00,028.2,025.4,000.0,036.7,029.5,34.3,-000.5,0015.81,0026.04,0014.16
2023-09-10 22:05:00,SystemResetWarning,0837.1,5.00,000.00,028.2,025.8,000.0,036.7,029.6,34.4,-000.5,0015.79,0026.62,0014.13
2023-09-10 22:06:00,SystemResetWarning,0837.1,5.00,000.00,028.2,026.1,000.0,036.7,029.7,34.4,-000.5,0015.72,0026.69,0014.12
2023-09-10 22:07:00,SystemResetWarning,0837.1,5.00,000.00,028.2,026.4,000.0,036.7,029.7,34.4,-000.5,0015.66,0026.90,0014.09
2023-09-10 22:08:00,SystemResetWarning,0837.1,5.00,000.00,028.2,026.6,000.0,036.7,029.8,34.4,-000.6,0015.61,0026.85,0014.07
2023-09-10 22:09:00,SystemResetWarning,0837.0,5.00,000.00,028.3,026.8,000.0,036.7,029.8,34.4,-000.4,0015.56,0026.96,0014.05
2023-09-10 22:10:00,SystemResetWarning,0837.1,5.00,000.00,028.3,027.0,000.0,036.7,029.9,34.3,-000.5,0015.60,0028.03,0014.05
2023-09-10 22:11:00,SystemResetWarning,0837.1,5.00,000.00,028.3,027.1,000.0,036.7,030.0,34.2,-000.3,0015.55,0028.11,0014.03
2023-09-10 22:12:00,SystemResetWarning,0837.1,5.00,000.00,028.4,027.2,000.0,036.8,030.0,34.2,-000.4,0015.51,0028.21,0014.00
2023-09-10 22:13:00,SystemResetWarning,0837.1,5.00,000.00,028.4,027.4,000.0,036.8,030.1,34.2,-000.4,0015.50,0028.24,0013.97
2023-09-10 22:14:00,SystemResetWarning,0837.1,5.01,000.00,028.5,027.5,000.0,036.8,030.1,34.0,-000.3,0015.55,0028.24,0013.98
2023-09-10 22:15:00,SystemResetWarning,0837.1,5.00,000.00,028.5,027.5,000.0,036.8,030.2,33.9,-000.1,0015.48,0028.18,0013.96
2023-09-10 22:16:00,SystemResetWarning,0837.1,4.99,000.00,028.5,027.6,000.0,036.8,030.2,33.8,-000.2,0015.56,0027.26,0013.98
2023-09-10 22:17:00,SystemResetWarning,0837.1,5.00,000.00,028.6,027.7,000.0,036.9,030.3,33.8,-000.2,0015.60,0027.06,0013.98
2023-09-10 22:18:00,SystemResetWarning,0837.2,5.00,000.00,028.6,027.7,000.0,036.9,030.3,33.7,-000.1,0015.59,0027.34,0013.98
2023-09-10 22:19:00,SystemResetWarning,0837.2,5.00,000.00,028.6,027.8,000.0,036.9,030.3,33.7,-000.1,0015.60,0026.79,0013.99
2023-09-10 22:20:00,SystemResetWarning,0837.1,5.00,000.00,028.7,027.7,000.0,036.9,030.4,33.8,-000.2,0015.64,0026.93,0014.00
2023-09-10 22:21:00,SystemResetWarning,0837.1,5.00,000.00,028.7,026.4,000.0,036.9,030.2,34.0,-000.2,0015.65,0026.49,0014.00
2023-09-10 22:22:00,SystemResetWarning,0837.1,5.00,000.00,028.6,025.1,000.0,036.8,029.9,34.2,-000.4,0015.73,0026.57,0014.00
2023-09-10 22:23:00,SystemResetWarning,0837.0,4.99,000.00,028.5,024.8,000.0,036.8,029.8,34.9,-000.5,0015.71,0027.30,0014.01
2023-09-10 22:24:00,SystemResetWarning,0837.0,5.04,000.00,028.5,025.1,000.0,036.8,029.7,35.0,-000.6,0015.65,0027.13,0014.01
2023-09-10 22:25:00,SystemResetWarning,0837.1,4.96,000.00,028.6,025.4,000.0,036.8,029.8,34.4,-000.6,0015.56,0027.38,0014.01
2023-09-10 22:26:00,SystemResetWarning,0837.1,5.02,000.00,028.7,025.8,000.0,036.8,029.9,34.2,-000.8,0015.55,0026.92,0014.04
2023-09-10 22:27:00,SystemResetWarning,0837.1,5.00,000.00,028.8,026.1,000.0,036.8,029.9,34.4,-000.9,0015.49,0027.13,0014.05
2023-09-10 22:28:00,SystemResetWarning,0837.2,4.99,000.00,028.8,026.4,000.0,036.9,029.9,34.1,-001.0,0015.50,0027.45,0014.06
2023-09-10 22:29:00,SystemResetWarning,0837.1,5.00,000.00,028.9,026.7,000.0,036.9,030.0,34.2,-001.0,0015.54,0027.09,0014.08
2023-09-10 22:30:00,SystemResetWarning,0837.2,5.00,000.00,028.9,026.9,000.0,037.0,030.1,34.1,-001.1,0015.54,0027.29,0014.08
2023-09-10 22:31:00,SystemResetWarning,0837.1,5.00,000.00,028.9,027.1,000.0,037.0,030.1,34.0,-001.0,0015.50,0027.89,0014.05
2023-09-10 22:32:00,SystemResetWarning,0837.2,5.01,000.00,029.0,027.2,000.0,037.0,030.2,34.3,-001.1,0015.54,0028.59,0014.07
2023-09-10 22:33:00,SystemResetWarning,0837.2,5.01,000.00,029.0,027.3,000.0,037.1,030.2,34.3,-001.1,0015.53,0029.23,0014.10
2023-09-10 22:34:00,SystemResetWarning,0837.2,5.00,000.00,029.0,027.5,000.0,037.1,030.3,34.0,-001.2,0015.54,0029.10,0014.12
2023-09-10 22:35:00,SystemResetWarning,0837.2,4.99,000.00,029.0,027.6,000.0,037.2,030.3,34.2,-001.1,0015.59,0029.35,0014.14
2023-09-10 22:36:00,SystemResetWarning,0837.2,4.99,000.00,029.1,027.6,000.0,037.2,030.4,34.4,-001.1,0015.64,0028.59,0014.14
2023-09-10 22:37:00,SystemResetWarning,0837.3,5.00,000.00,029.1,027.7,000.0,037.2,030.4,34.4,-001.2,0015.65,0028.70,0014.16
2023-09-10 22:38:00,SystemResetWarning,0837.5,5.00,000.00,029.1,027.8,000.0,037.3,030.5,34.5,-001.1,0015.68,0028.93,0014.20
2023-09-10 22:39:00,SystemResetWarning,0837.5,5.00,000.00,029.2,027.4,000.0,037.3,030.5,34.5,-000.9,0015.75,0028.85,0014.23
2023-09-10 22:40:00,SystemResetWarning,0837.5,5.01,000.00,029.1,025.7,000.0,037.2,030.2,34.6,-000.9,0015.75,0029.22,0014.25
2023-09-10 22:41:00,SystemResetWarning,0837.6,5.00,000.00,029.1,024.8,000.0,037.1,030.1,34.8,-000.7,0015.77,0029.96,0014.28
2023-09-10 22:42:00,SystemResetWarning,0837.6,4.99,000.00,029.0,024.9,000.0,037.1,029.9,35.1,-000.6,0015.78,0029.76,0014.30
2023-09-10 22:43:00,SystemResetWarning,0837.6,5.03,000.00,028.9,025.1,000.0,037.1,029.8,35.7,-000.4,0015.82,0029.42,0014.31
2023-09-10 22:44:00,SystemResetWarning,0837.6,4.99,000.00,029.2,025.5,000.0,037.1,030.0,35.5,-000.3,0015.84,0028.57,0014.30
2023-09-10 22:45:00,SystemResetWarning,0837.7,5.01,000.00,029.5,025.9,000.0,037.1,030.2,34.9,-000.3,0015.91,0028.98,0014.30
2023-09-10 22:46:00,SystemResetWarning,0837.6,4.97,000.00,029.7,026.2,000.0,037.2,030.3,34.4,-000.2,0015.94,0028.81,0014.30
2023-09-10 22:47:00,SystemResetWarning,0837.6,5.01,000.00,029.9,026.4,000.0,037.2,030.3,34.1,-000.1,0016.00,0029.77,0014.33
2023-09-10 22:48:00,SystemResetWarning,0837.6,5.01,000.00,030.0,026.7,000.0,037.3,030.3,33.9,-000.2,0016.04,0029.94,0014.32
2023-09-10 22:49:00,SystemResetWarning,0837.7,4.99,000.00,030.0,026.9,000.0,037.4,030.3,33.9,-000.2,0016.05,0029.73,0014.27
2023-09-10 22:50:00,SystemResetWarning,0837.6,4.99,000.00,030.1,027.0,000.0,037.5,030.4,33.9,-000.2,0016.02,0029.69,0014.24
2023-09-10 22:51:00,SystemResetWarning,0837.6,5.00,000.00,030.1,027.2,000.0,037.6,030.4,33.7,-000.3,0015.99,0030.03,0014.24
2023-09-10 22:52:00,SystemResetWarning,0837.6,5.01,000.00,030.1,027.3,000.0,037.7,030.5,33.6,-000.5,0015.97,0029.21,0014.22
2023-09-10 22:53:00,SystemResetWarning,0837.6,5.01,000.00,030.1,027.4,000.0,037.8,030.6,33.6,-000.6,0015.93,0028.54,0014.21
2023-09-10 22:54:00,SystemResetWarning,0837.7,5.00,000.00,030.2,027.5,000.0,037.8,030.6,33.6,-000.6,0015.92,0028.24,0014.22
2023-09-10 22:55:00,SystemResetWarning,0837.7,4.99,000.00,030.2,027.6,000.0,037.9,030.7,33.7,-000.6,0015.88,0028.24,0014.22
2023-09-10 22:56:00,SystemResetWarning,0837.7,4.99,000.00,030.2,027.7,000.0,037.9,030.8,33.7,-000.6,0015.85,0027.90,0014.22
2023-09-10 22:57:00,SystemResetWarning,0837.7,4.99,000.00,030.2,027.7,000.0,038.0,030.8,33.5,-000.6,0015.83,0028.55,0014.24
2023-09-10 22:58:00,SystemResetWarning,0837.7,5.00,000.00,030.2,026.9,000.0,037.9,030.7,33.2,-000.6,0015.77,0027.93,0014.26
2023-09-10 22:59:00,SystemResetWarning,0837.8,5.00,000.00,030.2,025.3,000.0,037.9,030.4,33.1,-000.3,0015.77,0028.46,0014.26
